Flag for Germany Weather past 2 weeks in Berlin, Berlin, Germany

Now
71 °F

Mild.


Feels Like: 76 °F
Forecast: 61 / 88 °F
Wind: 7 mph from West

Location: Berlin-Tempelhof

Current Time: Jul 6, 2015 at 12:11:26 PM

Latest Report: Jul 6, 2015 at 11:00 AM


Visibility: N/A

Pressure: 30.10 "Hg

Humidity: 57%

Dew point: 55 °F

Location of BerlinLocation

Historic Weather in Berlin — Graph

°F

Berlin temperature yesterday

Maximum temperature yesterday: 98 °F (at 4:00 PM)
Minimum temperature yesterday: 71 °F (at 11:00 PM)
Average temperature yesterday: 85 °F

Past Weeks' High & Low Weather Summary

 TemperatureHumidityPressure
High99 °F (Jul 4, 5:00 PM)97% (Jun 24, 5:00 AM)30.29 "Hg (Jun 24, 5:00 AM)
Low51 °F (Jun 24, 3:00 AM)24% (Jul 4, 5:00 PM)29.62 "Hg (Jun 23, 2:00 AM)
Average69 °F62%30.08 "Hg
* Reported Jun 21 10:00 AM — Jul 6 10:00 AM, Berlin, Weather by CustomWeather, © 2015

Note: Actual official high and low records may vary slightly from our data, if they occured in-between our weather recording intervals... More about our weather records

Advertising

Berlin weather history for previous 24 hours

 ConditionsComfort  
Time TempWeatherWind HumidityBarometerVisibility
10:00 AM
Mon, Jul 6
69 °FMild.6 mph70%30.08 "HgN/A
9:00 AM67 °FMild.6 mph81%30.06 "HgN/A
8:00 AM66 °FMild.9 mph82%30.03 "HgN/A
7:00 AM67 °FMild.8 mph88%30.00 "HgN/A
6:00 AM69 °FMild.5 mph93%29.98 "HgN/A
5:00 AM70 °FMild.2 mph95%29.96 "HgN/A
4:00 AM70 °FMild.2 mph95%29.98 "HgN/A
3:00 AM70 °FMild.5 mph94%29.97 "HgN/A
2:00 AM70 °FMild.2 mph94%29.92 "HgN/A
1:00 AM70 °FMild.1 mph92%29.92 "HgN/A
12:00 AM70 °FMild.5 mph90%29.96 "HgN/A
11:00 PM
Sun, Jul 5
71 °FMild.13 mph87%29.93 "HgN/A
10:00 PM87 °FWarm.3 mph44%29.85 "HgN/A
9:00 PM88 °FHot.3 mph42%29.86 "HgN/A
8:00 PM92 °FHot.3 mph36%29.88 "HgN/A
7:00 PM95 °FExtremely hot.2 mph29%29.88 "HgN/A
6:00 PM96 °FExtremely hot.1 mph29%29.91 "HgN/A
5:00 PM96 °FExtremely hot.2 mph28%29.94 "HgN/A
4:00 PM98 °FExtremely hot.2 mph27%29.96 "HgN/A
3:00 PM96 °FExtremely hot.2 mph28%29.97 "HgN/A
2:00 PM95 °FExtremely hot.2 mph30%30.00 "HgN/A
1:00 PM93 °FExtremely hot.1 mph34%30.01 "HgN/A
12:00 PM89 °FHot.2 mph42%30.03 "HgN/A
Weather by CustomWeather, © 2015

See weather overviewHow to use our weather pages